KC7O Weather Reports


Display with metric or nautical units.
time (UTC)temp
F
wind
direction
speed
MPH
gust
MPH
rain 1hr
in
rain 24hr
in
rain mn
in
humidity
%
barometer
mb
20260906014319 85 271 1.0 2.0 0.00 0.00 0.00 45 1010.8
20260906013820 85 139 0.0 3.0 0.00 0.00 0.00 45 1010.8
20260906013342 85 131 1.0 3.0 0.00 0.00 0.00 43 1010.8
20260906012820 86 274 1.0 2.0 0.00 0.00 0.00 40 1010.9
20260906012320 86 236 0.0 4.0 0.00 0.00 0.00 38 1010.9
20260906011821 87 155 2.0 4.0 0.00 0.00 0.00 29 1010.9
20260906011325 87 133 1.0 4.0 0.00 0.00 0.00 27 1010.7
20260906010848 87 118 0.0 3.0 0.00 0.00 0.00 26 1010.7
20260906010329 87 140 0.0 4.0 0.00 0.00 0.00 25 1010.7
20260906005829 87 139 1.0 4.0 0.00 0.00 0.00 24 1010.8
20260906005329 87 188 2.0 4.0 0.00 0.00 0.00 25 1010.8
20260906004850 87 184 2.0 4.0 0.00 0.00 0.00 24 1010.8
20260906004334 88 198 1.0 4.0 0.00 0.00 0.00 25 1010.8
20260906003836 88 188 0.0 4.0 0.00 0.00 0.00 25 1010.8
20260906003337 88 143 1.0 4.0 0.00 0.00 0.00 25 1010.7
20260906002836 88 167 1.0 3.0 0.00 0.00 0.00 25 1010.7
20260906002339 88 185 1.0 3.0 0.00 0.00 0.00 25 1010.7
20260906001820 88 217 1.0 3.0 0.00 0.00 0.00 25 1010.7
20260906001320 88 259 0.0 2.0 0.00 0.00 0.00 26 1010.7
20260906000824 88 178 0.0 2.0 0.00 0.00 0.00 26 1010.8
20260906000326 88 168 1.0 3.0 0.00 0.00 0.00 25 1010.7
20260905235830 89 229 1.0 3.0 0.00 0.00 0.00 25 1010.8
20260905235353 89 219 1.0 4.0 0.00 0.00 0.00 26 1010.7
20260905234837 89 146 1.0 4.0 0.00 0.00 0.00 26 1010.7
20260905234338 89 171 1.0 4.0 0.00 0.00 0.00 25 1010.6
20260905233839 89 139 0.0 4.0 0.00 0.00 0.00 26 1010.7
20260905233337 89 171 1.0 6.0 0.00 0.00 0.00 26 1010.8
20260905232834 88 201 2.0 7.0 0.00 0.00 0.00 26 1010.7
20260905232337 89 163 4.0 7.0 0.00 0.00 0.00 26 1010.7
20260905231839 89 204 2.0 6.0 0.00 0.00 0.00 26 1010.7
20260905231339 89 213 1.0 6.0 0.00 0.00 0.00 26 1010.7
20260905230841 89 200 2.0 6.0 0.00 0.00 0.00 26 1010.8
20260905230320 90 207 2.0 5.0 0.00 0.00 0.00 26 1010.8
20260905225819 90 233 2.0 4.0 0.00 0.00 0.00 28 1010.7
20260905225338 90 197 0.0 4.0 0.00 0.00 0.00 26 1010.7
20260905224821 90 238 0.0 5.0 0.00 0.00 0.00 28 1010.8
20260905224322 90 156 3.0 5.0 0.00 0.00 0.00 27 1010.9
20260905223828 90 83 1.0 4.0 0.00 0.00 0.00 26 1010.9
20260905223327 90 226 2.0 4.0 0.00 0.00 0.00 27 1011.1
20260905222829 90 166 1.0 6.0 0.00 0.00 0.00 27 1011.2
20260905222334 91 293 3.0 6.0 0.00 0.00 0.00 27 1011.1
20260905221337 91 160 2.0 5.0 0.00 0.00 0.00 27 1011.2
20260905220837 91 178 1.0 5.0 0.00 0.00 0.00 27 1011.2
20260905220320 90 210 1.0 5.0 0.00 0.00 0.00 27 1011.2
20260905215821 90 244 1.0 9.0 0.00 0.00 0.00 27 1011.3
20260905215322 91 218 4.0 9.0 0.00 0.00 0.00 25 1011.3
20260905214824 91 195 2.0 7.0 0.00 0.00 0.00 27 1011.4
20260905214324 91 204 3.0 7.0 0.00 0.00 0.00 27 1011.4
20260905213820 91 170 3.0 6.0 0.00 0.00 0.00 28 1011.4
20260905213321 91 263 2.0 5.0 0.00 0.00 0.00 27 1011.5
20260905212839 91 174 3.0 5.0 0.00 0.00 0.00 28 1011.6
20260905212320 91 159 2.0 5.0 0.00 0.00 0.00 29 1011.6
20260905211819 91 180 2.0 5.0 0.00 0.00 0.00 29 1011.6
20260905211338 91 151 2.0 7.0 0.00 0.00 0.00 29 1011.6
20260905210838 90 221 2.0 8.0 0.00 0.00 0.00 29 1011.6
20260905210337 90 231 3.0 8.0 0.00 0.00 0.00 30 1011.6
20260905205837 90 152 0.0 4.0 0.00 0.00 0.00 28 1011.7
20260905205319 90 157 1.0 5.0 0.00 0.00 0.00 28 1011.7
20260905204859 90 184 2.0 5.0 0.00 0.00 0.00 28 1011.9
20260905204338 90 175 2.0 7.0 0.00 0.00 0.00 29 1011.9
20260905203837 90 195 3.0 7.0 0.00 0.00 0.00 30 1012.0
20260905203319 89 251 3.0 6.0 0.00 0.00 0.00 30 1012.1
20260905202821 89 160 3.0 7.0 0.00 0.00 0.00 30 1012.1
20260905202321 89 197 3.0 7.0 0.00 0.00 0.00 30 1012.2
20260905201819 89 129 2.0 4.0 0.00 0.00 0.00 31 1012.2
20260905201358 88 153 1.0 8.0 0.00 0.00 0.00 31 1012.3
20260905200834 89 214 3.0 8.0 0.00 0.00 0.00 31 1012.4
20260905200320 88 134 2.0 6.0 0.00 0.00 0.00 31 1012.4
20260905195839 89 143 3.0 6.0 0.00 0.00 0.00 30 1012.4
20260905195320 88 150 2.0 5.0 0.00 0.00 0.00 30 1012.5
20260905194820 88 224 2.0 6.0 0.00 0.00 0.00 30 1012.6
20260905194322 88 230 2.0 6.0 0.00 0.00 0.00 30 1012.6
20260905193822 88 200 2.0 6.0 0.00 0.00 0.00 30 1012.6
20260905193320 87 143 3.0 6.0 0.00 0.00 0.00 30 1012.6
20260905192319 87 172 0.0 3.0 0.00 0.00 0.00 33 1012.7
20260905191859 86 219 1.0 5.0 0.00 0.00 0.00 34 1012.7
20260905191337 86 69 2.0 5.0 0.00 0.00 0.00 33 1012.8
20260905190838 87 141 2.0 5.0 0.00 0.00 0.00 33 1012.9
20260905190320 86 156 1.0 5.0 0.00 0.00 0.00 34 1013.0
20260905185839 86 213 3.0 5.0 0.00 0.00 0.00 35 1013.1
20260905185321 85 162 2.0 5.0 0.00 0.00 0.00 36 1013.1
20260905184843 86 139 2.0 5.0 0.00 0.00 0.00 35 1013.1
20260905184323 86 160 1.0 4.0 0.00 0.00 0.00 36 1013.1
20260905183840 86 127 2.0 4.0 0.00 0.00 0.00 37 1013.1
20260905183318 86 218 2.0 4.0 0.00 0.00 0.00 37 1013.3
20260905182823 85 160 2.0 4.0 0.00 0.00 0.00 37 1013.3
20260905182321 85 157 1.0 3.0 0.00 0.00 0.00 37 1013.3
20260905181820 84 148 1.0 4.0 0.00 0.00 0.00 36 1013.3
20260905181321 83 160 0.0 4.0 0.00 0.00 0.00 38 1013.4
20260905180842 83 153 1.0 5.0 0.00 0.00 0.00 38 1013.4
20260905180324 83 149 1.0 5.0 0.00 0.00 0.00 39 1013.3
20260905175824 82 156 2.0 5.0 0.00 0.00 0.00 39 1013.4
20260905175322 82 118 1.0 4.0 0.00 0.00 0.00 40 1013.3
20260905174820 82 96 1.0 4.0 0.00 0.00 0.00 41 1013.3
20260905174321 82 133 2.0 5.0 0.00 0.00 0.00 41 1013.2
20260905173842 81 153 2.0 5.0 0.00 0.00 0.00 41 1013.3
20260905173319 81 131 1.0 5.0 0.00 0.00 0.00 42 1013.2
20260905172337 80 136 1.0 4.0 0.00 0.00 0.00 46 1013.2
20260905171354 80 86 1.0 5.0 0.00 0.00 0.00 47 1013.1
20260905170834 79 169 0.0 0.0 0.00 0.00 0.00 48 1013.1
20260905170335 79 138 0.0 0.0 0.00 0.00 0.00 49 1013.2
20260905165831 78 153 0.0 0.0 0.00 0.00 0.00 48 1013.2
20260905165333 78 162 0.0 0.0 0.00 0.00 0.00 50 1013.2
20260905164837 77 207 0.0 0.0 0.00 0.00 0.00 50 1013.1
20260905164359 77 148 0.0 0.0 0.00 0.00 0.00 51 1013.1
20260905163858 77 243 0.0 0.0 0.00 0.00 0.00 51 1013.0
20260905163336 77 194 0.0 0.0 0.00 0.00 0.00 52 1013.0
20260905162835 76 177 0.0 0.0 0.00 0.00 0.00 52 1013.0
20260905161832 76 172 0.0 0.0 0.00 0.00 0.00 52 1012.9
20260905161330 75 136 0.0 0.0 0.00 0.00 0.00 53 1012.9
20260905160831 75 155 0.0 0.0 0.00 0.00 0.00 51 1012.9
20260905160332 76 158 0.0 0.0 0.00 0.00 0.00 52 1012.9
20260905155835 75 145 0.0 0.0 0.00 0.00 0.00 54 1012.9
20260905155334 75 185 0.0 0.0 0.00 0.00 0.00 55 1012.9
20260905154858 75 186 0.0 0.0 0.00 0.00 0.00 55 1012.9
20260905154336 75 160 0.0 0.0 0.00 0.00 0.00 53 1012.7
20260905153856 74 150 0.0 0.0 0.00 0.00 0.00 54 1012.7
20260905153335 74 215 0.0 0.0 0.00 0.00 0.00 56 1012.7
20260905152834 73 188 0.0 0.0 0.00 0.00 0.00 57 1012.6
20260905152319 73 157 0.0 0.0 0.00 0.00 0.00 59 1012.6
20260905151839 72 262 0.0 0.0 0.00 0.00 0.00 61 1012.5
20260905151339 71 169 0.0 0.0 0.00 0.00 0.00 63 1012.6
20260905150838 71 205 0.0 0.0 0.00 0.00 0.00 63 1012.6
20260905145838 70 4 0.0 0.0 0.00 0.00 0.00 65 1012.5
20260905145359 70 4 0.0 0.0 0.00 0.00 0.00 69 1012.4
20260905144819 69 4 0.0 0.0 0.00 0.00 0.00 71 1012.3
20260905144319 69 4 0.0 0.0 0.00 0.00 0.00 72 1012.3
20260905143818 68 4 0.0 0.0 0.00 0.00 0.00 74 1012.3
20260905143338 68 4 0.0 0.0 0.00 0.00 0.00 78 1012.4
20260905142835 66 4 0.0 0.0 0.00 0.00 0.00 79 1012.4
20260905142354 65 4 0.0 0.0 0.00 0.00 0.00 82 1012.4
20260905141833 63 4 0.0 0.0 0.00 0.00 0.00 84 1012.3
20260905141334 62 4 0.0 0.0 0.00 0.00 0.00 84 1012.2
20260905140854 61 4 0.0 0.0 0.00 0.00 0.00 84 1012.2
20260905140334 60 4 0.0 0.0 0.00 0.00 0.00 85 1012.1
20260905135854 60 4 0.0 0.0 0.00 0.00 0.00 85 1012.1
20260905135333 60 4 0.0 0.0 0.00 0.00 0.00 85 1012.1
20260905134833 59 4 0.0 0.0 0.00 0.00 0.00 87 1012.2
20260905134320 59 4 0.0 0.0 0.00 0.00 0.00 88 1012.1
20260905133855 59 4 0.0 0.0 0.00 0.00 0.00 90 1012.0
20260905133335 59 4 0.0 0.0 0.00 0.00 0.00 90 1011.8
20260905132832 59 4 0.0 0.0 0.00 0.00 0.00 90 1011.8
20260905132355 59 4 0.0 0.0 0.00 0.00 0.00 90 1011.7
20260905131831 60 4 0.0 0.0 0.00 0.00 0.00 89 1011.6
20260905131351 60 4 0.0 0.0 0.00 0.00 0.00 90 1011.5
20260905130828 60 4 0.0 0.0 0.00 0.00 0.00 90 1011.5
20260905130355 60 4 0.0 0.0 0.00 0.00 0.00 91 1011.6
20260905125835 60 4 0.0 0.0 0.00 0.00 0.00 91 1011.6
20260905125338 59 4 0.0 0.0 0.00 0.00 0.00 91 1011.6
20260905124837 59 4 0.0 0.0 0.00 0.00 0.00 91 1011.6
20260905124358 59 4 0.0 0.0 0.00 0.00 0.00 92 1011.6
20260905123836 59 4 0.0 0.0 0.00 0.00 0.00 92 1011.4
20260905123338 59 4 0.0 0.0 0.00 0.00 0.00 92 1011.4
20260905122838 59 4 0.0 0.0 0.00 0.00 0.00 92 1011.4
20260905122320 59 4 0.0 0.0 0.00 0.00 0.00 92 1011.5
20260905121821 59 4 0.0 0.0 0.00 0.00 0.00 92 1011.6
20260905121321 60 4 0.0 0.0 0.00 0.00 0.00 92 1011.7
20260905120824 60 4 0.0 0.0 0.00 0.00 0.00 92 1011.6
20260905120323 60 4 0.0 0.0 0.00 0.00 0.00 92 1011.6
20260905115820 60 4 0.0 0.0 0.00 0.00 0.00 92 1011.6
20260905115322 60 4 0.0 0.0 0.00 0.00 0.00 92 1011.6
20260905114820 60 4 0.0 0.0 0.00 0.00 0.00 92 1011.6
20260905114321 60 4 0.0 0.0 0.00 0.00 0.00 92 1011.6
20260905113819 60 4 0.0 0.0 0.00 0.00 0.00 92 1011.6
20260905113337 61 4 0.0 0.0 0.00 0.00 0.00 92 1011.7
20260905112819 61 4 0.0 0.0 0.00 0.00 0.00 92 1011.7
20260905112322 61 4 0.0 0.0 0.00 0.00 0.00 92 1011.7
20260905111822 61 4 0.0 0.0 0.00 0.00 0.00 92 1011.6
20260905111340 61 4 0.0 0.0 0.00 0.00 0.00 92 1011.7
20260905110837 61 4 0.0 0.0 0.00 0.00 0.00 92 1011.6
20260905110358 61 4 0.0 0.0 0.00 0.00 0.00 92 1011.7
20260905105834 62 4 0.0 0.0 0.00 0.00 0.00 92 1011.7
20260905105359 62 4 0.0 0.0 0.00 0.00 0.00 92 1011.8
20260905104854 62 4 0.0 0.0 0.00 0.00 0.00 92 1011.9
20260905104319 62 4 0.0 0.0 0.00 0.00 0.00 91 1012.0
20260905103840 62 4 0.0 0.0 0.00 0.00 0.00 91 1011.9
20260905103338 62 4 0.0 0.0 0.00 0.00 0.00 91 1011.9
20260905102818 62 4 0.0 0.0 0.00 0.00 0.00 91 1012.0
20260905102319 62 4 0.0 0.0 0.00 0.00 0.00 91 1012.0
20260905101837 62 4 0.0 0.0 0.00 0.00 0.00 91 1012.0
20260905101337 62 4 0.0 0.0 0.00 0.00 0.00 91 1012.0
20260905100836 62 4 0.0 0.0 0.00 0.00 0.00 91 1011.9
20260905100337 62 4 0.0 0.0 0.00 0.00 0.00 91 1011.9
20260905095352 62 4 0.0 0.0 0.00 0.00 0.00 91 1011.9
20260905094851 62 4 0.0 0.0 0.00 0.00 0.00 90 1012.0
20260905094329 62 4 0.0 0.0 0.00 0.00 0.00 90 1012.0
20260905093829 62 4 0.0 0.0 0.00 0.00 0.00 90 1011.9
20260905093324 62 4 0.0 0.0 0.00 0.00 0.00 90 1011.9
20260905092826 62 4 0.0 0.0 0.00 0.00 0.00 89 1011.9
20260905092323 62 4 0.0 0.0 0.00 0.00 0.00 89 1011.9
20260905091824 62 4 0.0 0.0 0.00 0.00 0.00 89 1011.9
20260905091323 63 4 0.0 0.0 0.00 0.00 0.00 88 1011.9
20260905090822 63 4 0.0 0.0 0.00 0.00 0.00 88 1011.9
20260905090326 63 4 0.0 0.0 0.00 0.00 0.00 88 1011.9
20260905085847 63 4 0.0 0.0 0.00 0.00 0.00 87 1011.9
20260905085349 63 4 0.0 0.0 0.00 0.00 0.00 87 1011.9
20260905084827 64 4 0.0 0.0 0.00 0.00 0.00 87 1012.1
20260905084328 64 4 0.0 0.0 0.00 0.00 0.00 87 1012.1
20260905083826 64 4 0.0 0.0 0.00 0.00 0.00 87 1012.2
20260905083322 64 4 0.0 0.0 0.00 0.00 0.00 86 1012.2
20260905082838 64 4 0.0 0.0 0.00 0.00 0.00 87 1012.3
20260905082356 63 234 0.0 0.0 0.00 0.00 0.00 86 1012.3
20260905081831 63 234 0.0 0.0 0.00 0.00 0.00 86 1012.4
20260905081333 63 234 0.0 0.0 0.00 0.00 0.00 86 1012.3
20260905080827 63 234 0.0 0.0 0.00 0.00 0.00 85 1012.3
20260905080326 64 234 0.0 0.0 0.00 0.00 0.00 85 1012.3
20260905075827 64 234 0.0 0.0 0.00 0.00 0.00 85 1012.3
20260905075326 64 234 0.0 0.0 0.00 0.00 0.00 85 1012.2
20260905074825 64 234 0.0 0.0 0.00 0.00 0.00 85 1012.2
20260905074326 64 234 0.0 0.0 0.00 0.00 0.00 84 1012.2
20260905073837 64 234 0.0 0.0 0.00 0.00 0.00 84 1012.2
20260905072838 64 234 0.0 0.0 0.00 0.00 0.00 83 1012.2
20260905071830 65 234 0.0 0.0 0.00 0.00 0.00 83 1012.1
20260905071349 65 234 0.0 0.0 0.00 0.00 0.00 83 1012.1
20260905070825 65 234 0.0 0.0 0.00 0.00 0.00 83 1012.1
20260905070343 65 234 0.0 0.0 0.00 0.00 0.00 83 1012.3
20260905065823 65 234 0.0 0.0 0.00 0.00 0.00 83 1012.2
20260905065323 65 234 0.0 0.0 0.00 0.00 0.00 83 1012.2
20260905064823 65 234 0.0 0.0 0.00 0.00 0.00 84 1012.1
20260905064344 65 234 0.0 0.0 0.00 0.00 0.00 84 1012.1
20260905063822 65 234 0.0 0.0 0.00 0.00 0.00 84 1012.1
20260905063321 65 234 0.0 0.0 0.00 0.00 0.00 84 1012.0
20260905062819 65 234 0.0 0.0 0.00 0.00 0.00 85 1012.0
20260905062339 65 234 0.0 0.0 0.00 0.00 0.00 85 1012.0
20260905061839 65 234 0.0 0.0 0.00 0.00 0.00 84 1012.1
20260905061319 65 234 0.0 0.0 0.00 0.00 0.00 84 1012.0
20260905060900 66 234 0.0 0.0 0.00 0.00 0.00 84 1012.0
20260905060338 66 234 0.0 0.0 0.00 0.00 0.00 83 1012.0
20260905055838 66 234 0.0 0.0 0.00 0.00 0.00 83 1012.1
20260905055338 66 234 0.0 0.0 0.00 0.00 0.00 83 1011.9
20260905054820 66 234 0.0 0.0 0.00 0.00 0.00 83 1012.0
20260905054321 66 234 0.0 0.0 0.00 0.00 0.00 84 1012.0
20260905053840 66 234 0.0 0.0 0.00 0.00 0.00 83 1011.9
20260905053322 66 234 0.0 0.0 0.00 0.00 0.00 83 1011.9
20260905052821 66 234 0.0 0.0 0.00 0.00 0.00 82 1011.9
20260905052321 66 234 0.0 0.0 0.00 0.00 0.00 82 1011.9
20260905051822 67 234 0.0 0.0 0.00 0.00 0.00 81 1011.9
20260905051321 67 233 0.0 0.0 0.00 0.00 0.00 81 1011.9
20260905050900 67 234 0.0 0.0 0.00 0.00 0.00 81 1011.9
20260905050321 68 234 0.0 0.0 0.00 0.00 0.00 80 1012.0
20260905045838 68 234 0.0 0.0 0.00 0.00 0.00 80 1011.9
20260905045339 68 234 0.0 0.0 0.00 0.00 0.00 78 1012.0
20260905044821 68 234 0.0 0.0 0.00 0.00 0.00 78 1011.9
20260905044341 68 234 0.0 0.0 0.00 0.00 0.00 77 1011.9
20260905043842 69 234 0.0 0.0 0.00 0.00 0.00 78 1011.8
20260905043343 68 234 0.0 0.0 0.00 0.00 0.00 76 1011.7
20260905042843 69 234 0.0 0.0 0.00 0.00 0.00 75 1011.5
20260905042344 69 234 0.0 0.0 0.00 0.00 0.00 75 1011.4
20260905041824 70 234 0.0 0.0 0.00 0.00 0.00 75 1011.4
20260905041322 70 234 0.0 0.0 0.00 0.00 0.00 74 1011.3
20260905040822 70 234 0.0 0.0 0.00 0.00 0.00 74 1011.2
20260905040320 70 234 0.0 0.0 0.00 0.00 0.00 74 1011.2
20260905035857 70 236 0.0 0.0 0.00 0.00 0.00 72 1011.2
20260905035358 71 236 0.0 0.0 0.00 0.00 0.00 70 1011.2
20260905034835 71 236 0.0 0.0 0.00 0.00 0.00 68 1011.1
20260905034335 71 236 0.0 0.0 0.00 0.00 0.00 68 1011.0
20260905033855 71 236 0.0 0.0 0.00 0.00 0.00 67 1011.0
20260905033334 72 236 0.0 0.0 0.00 0.00 0.00 67 1010.9
20260905032819 72 236 0.0 0.0 0.00 0.00 0.00 67 1010.8
20260905032347 72 236 0.0 0.0 0.00 0.00 0.00 66 1010.8
20260905031836 72 236 0.0 0.0 0.00 0.00 0.00 66 1010.8
20260905031358 73 236 0.0 0.0 0.00 0.00 0.00 64 1010.8
20260905030855 73 236 0.0 0.0 0.00 0.00 0.00 64 1010.7
20260905030335 73 236 0.0 0.0 0.00 0.00 0.00 65 1010.7
20260905025832 73 236 0.0 0.0 0.00 0.00 0.00 65 1010.7
20260905025332 74 236 0.0 0.0 0.00 0.00 0.00 63 1010.6
20260905024832 74 235 0.0 0.0 0.00 0.00 0.00 63 1010.6
20260905024335 74 216 0.0 0.0 0.00 0.00 0.00 62 1010.5
20260905023837 74 216 0.0 0.0 0.00 0.00 0.00 61 1010.5
20260905023337 74 241 0.0 0.0 0.00 0.00 0.00 60 1010.5
20260905022856 75 241 0.0 0.0 0.00 0.00 0.00 58 1010.5
20260905022335 75 241 0.0 0.0 0.00 0.00 0.00 58 1010.5
20260905021833 76 241 0.0 0.0 0.00 0.00 0.00 57 1010.6
20260905021334 76 241 0.0 0.0 0.00 0.00 0.00 56 1010.6
20260905020833 77 241 0.0 0.0 0.00 0.00 0.00 56 1010.7
20260905020351 77 202 0.0 0.0 0.00 0.00 0.00 55 1010.6
20260905015832 77 197 0.0 0.0 0.00 0.00 0.00 54 1010.6
20260905015329 77 223 0.0 1.0 0.00 0.00 0.00 53 1010.6